Weather in Kameshkovo

Russia / Vladimir Oblast     56°20′56″N   40°59′44″E
temp.,
°C
wind,
m/s
gust,
m/s
humid.,
%
clouds,
%
prec.,
mm/h
press.,
hPa
HPBL,
m
27 february, sat
sat2700:00+1wnw61398100 0.8 995734
03:00+1wnw61297100 1.7 997729
06:00−9nw71292100 0.5 999659
09:00−11n61189100 0.8 1003692
12:00−10n5887100 0.1 1006659
15:00−9nnw5887100 0.1 1009636
18:00−11nnw3794100 0.1 1010242
21:00−13nnw259699 0.1 1012119
28 february, sun
sun2800:00−14nnw239767 0.0 101362
03:00−15nnw239749 0.0 101549
06:00−16nnw229747 0.0 101530
09:00−13nnw139365 0.1 1016217
12:00−9nw238799 0.0 1015408
15:00−7nw2387100 0.1 1016519
18:00−8nw1295100 0.1 101738
21:00−8nne1296100 0.2 101933
1 march, mon
mon100:00−9ne1196100 0.1 102025
03:00−12wsw119694 0.1 102221
06:00−12wsw129796 0.0 102221
09:00−9sw239685 0.1 1023100
12:00−4sw249291 0.0 1022354
15:00−2wsw469092 0.1 1021634
18:00−3wsw499199 0.1 1019484
21:00−2sw61194100 0.1 1016493
2 march, tue
tue200:00−1wsw61395100 0.2 1012599
03:00+1w51294100 0.9 1009743
06:000w61298100 0.4 1006668
09:000nw61298100 1.3 1005716
12:00+1wnw51010094 0.3 1005739
15:00+1nw6119597 0.6 1005947
18:00−1nw51292100 0.1 1006563
21:00−3nw5139196 0.1 1008541
3 march, wed
wed300:00−4nw4129695 0.1 1009460
03:00−5nw5119397 0.2 1010544
06:00−6nw51292100 0.1 1011568
09:00−6nnw61189100 0.2 1014593
12:00−3nw598539 0.0 1015701
15:00−1nw588964 0.1 1015901
18:00−4nw4118999 0.3 1016584
21:00−5wnw389393 0.4 1016228